N0FDH Weather Reports


time (UTC)temp
C
wind
direction
speed
KPH
gust
KPH
rain 1hr
cm
rain 24hr
cm
rain mn
cm
humidity
%
barometer
mb
20260906162113 25 193 3.2 4.8 0.00 0.00 0.00 63 1020.1
20260906161612 24 143 1.6 1.6 0.00 0.00 0.00 65 1020.1
20260906161111 24 155 1.6 14.5 0.00 0.00 0.00 65 1019.8
20260906160610 23 78 1.6 4.8 0.00 0.00 0.00 65 1019.9
20260906160109 23 180 1.6 1.6 0.00 0.00 0.00 68 1019.9
20260906155607 23 120 0.0 1.6 0.00 0.00 0.00 65 1019.9
20260906155103 23 136 1.6 3.2 0.00 0.00 0.00 65 1019.7
20260906154558 23 126 0.0 4.8 0.00 0.00 0.00 69 1020.0
20260906154057 23 185 3.2 3.2 0.00 0.00 0.00 70 1020.1
20260906153556 23 148 1.6 3.2 0.00 0.00 0.00 72 1020.1
20260906153051 23 355 0.0 1.6 0.00 0.00 0.00 72 1019.7
20260906152551 23 52 0.0 4.8 0.00 0.00 0.00 75 1019.6
20260906152050 22 125 0.0 0.0 0.00 0.00 0.00 77 1019.8
20260906151546 22 115 1.6 3.2 0.00 0.00 0.00 80 1019.9
20260906151042 22 216 0.0 1.6 0.00 0.00 0.00 84 1020.0
20260906150537 22 272 1.6 4.8 0.00 0.00 0.00 84 1019.9
20260906150032 22 150 0.0 3.2 0.00 0.00 0.00 83 1019.9
20260906145531 22 29 0.0 3.2 0.00 0.00 0.00 84 1020.0
20260906145026 22 268 0.0 1.6 0.00 0.00 0.00 84 1019.9
20260906144520 22 162 3.2 4.8 0.00 0.00 0.00 84 1019.9
20260906144016 21 148 1.6 4.8 0.00 0.00 0.00 84 1019.8
20260906143510 21 18 0.0 1.6 0.00 0.00 0.00 88 1019.7
20260906143008 21 24 0.0 3.2 0.00 0.00 0.00 88 1019.6
20260906142506 21 168 0.0 4.8 0.00 0.00 0.00 90 1019.6
20260906141956 20 133 1.6 1.6 0.00 0.00 0.00 91 1019.7
20260906141455 20 133 0.0 1.6 0.00 0.00 0.00 92 1019.8
20260906140950 20 72 0.0 1.6 0.00 0.00 0.00 94 1019.9
20260906140445 20 357 0.0 1.6 0.00 0.00 0.00 94 1019.8
20260906135943 20 269 1.6 1.6 0.00 0.00 0.00 95 1019.7
20260906135442 20 269 0.0 0.0 0.00 0.00 0.00 96 1019.9
20260906134938 20 269 0.0 0.0 0.00 0.00 0.00 96 1019.9
20260906134433 20 269 0.0 3.2 0.00 0.00 0.00 97 1019.6
20260906133933 20 269 0.0 1.6 0.00 0.00 0.00 98 1019.5
20260906133429 19 282 0.0 1.6 0.00 0.00 0.00 99 1019.5
20260906132924 19 282 1.6 1.6 0.00 0.00 0.00 99 1019.3
20260906132419 19 282 0.0 1.6 0.00 0.00 0.00 99 1019.6
20260906131915 18 282 1.6 3.2 0.00 0.00 0.00 99 1019.4
20260906131410 18 303 0.0 1.6 0.00 0.00 0.00 99 1019.4
20260906130906 18 82 0.0 0.0 0.00 0.00 0.00 99 1019.4
20260906130405 18 140 0.0 1.6 0.00 0.00 0.00 99 1019.1
20260906125904 18 357 0.0 1.6 0.00 0.00 0.00 99 1019.3
20260906125401 18 357 0.0 1.6 0.00 0.00 0.00 99 1019.6
20260906124856 18 357 0.0 0.0 0.00 0.00 0.00 99 1019.5
20260906124352 18 357 0.0 0.0 0.00 0.00 0.00 99 1019.5
20260906123851 17 357 0.0 0.0 0.00 0.00 0.00 99 1019.6
20260906123346 17 357 0.0 0.0 0.00 0.00 0.00 99 1019.7
20260906122846 17 357 0.0 0.0 0.00 0.00 0.00 99 1019.6
20260906122341 17 357 0.0 1.6 0.00 0.00 0.00 99 1019.5
20260906121838 17 357 0.0 0.0 0.00 0.00 0.00 99 1019.4
20260906121334 17 357 0.0 1.6 0.00 0.00 0.00 99 1019.5
20260906120830 17 357 0.0 0.0 0.00 0.00 0.00 99 1019.3
20260906120325 17 357 0.0 0.0 0.00 0.00 0.00 99 1019.3
20260906115821 17 357 0.0 0.0 0.00 0.00 0.00 99 1019.3
20260906115316 17 357 0.0 0.0 0.00 0.00 0.00 99 1019.3
20260906114816 17 357 0.0 0.0 0.00 0.00 0.00 99 1019.0
20260906114312 17 357 0.0 1.6 0.00 0.00 0.00 99 1019.0
20260906113812 17 357 1.6 1.6 0.00 0.00 0.00 99 1019.2
20260906113311 17 357 0.0 0.0 0.00 0.00 0.00 99 1019.0
20260906112806 17 357 0.0 0.0 0.00 0.00 0.00 99 1019.1
20260906112257 17 357 0.0 0.0 0.00 0.00 0.00 99 1019.0
20260906111757 17 357 0.0 0.0 0.00 0.00 0.00 99 1018.7
20260906111256 17 357 0.0 0.0 0.00 0.00 0.00 99 1018.6
20260906110752 17 357 0.0 0.0 0.00 0.00 0.00 99 1018.6
20260906110247 17 357 0.0 1.6 0.00 0.00 0.00 99 1018.7
20260906105745 17 357 0.0 0.0 0.00 0.00 0.00 99 1018.8
20260906105241 17 357 0.0 0.0 0.00 0.00 0.00 99 1018.8
20260906104736 17 357 1.6 1.6 0.00 0.00 0.00 99 1018.7
20260906104235 18 357 0.0 0.0 0.00 0.00 0.00 99 1018.8
20260906103734 18 357 0.0 0.0 0.00 0.00 0.00 99 1018.7
20260906103233 18 357 0.0 0.0 0.00 0.00 0.00 99 1018.6
20260906102730 18 357 0.0 0.0 0.00 0.00 0.00 99 1018.6
20260906102229 18 357 0.0 0.0 0.00 0.00 0.00 99 1018.4
20260906101724 18 357 0.0 0.0 0.00 0.00 0.00 99 1018.4
20260906101219 17 357 0.0 0.0 0.00 0.00 0.00 99 1018.2
20260906100715 18 357 0.0 0.0 0.00 0.00 0.00 99 1018.3
20260906100215 18 356 0.0 0.0 0.00 0.00 0.00 99 1018.2
20260906095714 18 356 0.0 0.0 0.00 0.00 0.00 99 1018.4
20260906095210 18 356 0.0 0.0 0.00 0.00 0.00 99 1018.3
20260906094708 18 356 0.0 0.0 0.00 0.00 0.00 99 1018.3
20260906094204 18 356 0.0 0.0 0.00 0.00 0.00 99 1018.2
20260906093701 18 356 0.0 1.6 0.00 0.00 0.00 99 1018.4
20260906093155 18 356 0.0 0.0 0.00 0.00 0.00 99 1018.4
20260906092651 18 356 0.0 1.6 0.00 0.00 0.00 99 1018.7
20260906092145 18 356 0.0 0.0 0.00 0.00 0.00 99 1018.4
20260906091641 18 356 0.0 0.0 0.00 0.00 0.00 99 1018.4
20260906091137 18 356 0.0 0.0 0.00 0.00 0.00 99 1018.2
20260906090632 18 356 0.0 1.6 0.00 0.00 0.00 99 1018.0
20260906090132 18 356 1.6 1.6 0.00 0.00 0.00 99 1018.0
20260906085632 18 356 0.0 0.0 0.00 0.00 0.00 99 1018.2
20260906085132 18 356 0.0 0.0 0.00 0.00 0.00 99 1018.1
20260906084632 18 356 0.0 0.0 0.00 0.00 0.00 99 1018.1
20260906084130 18 356 0.0 0.0 0.00 0.00 0.00 99 1018.2
20260906083626 18 356 0.0 0.0 0.00 0.00 0.00 99 1018.2
20260906083121 18 356 0.0 0.0 0.00 0.00 0.00 99 1018.2
20260906082616 18 356 0.0 0.0 0.00 0.00 0.00 99 1018.1
20260906082112 18 356 0.0 0.0 0.00 0.00 0.00 99 1018.0
20260906081608 18 356 0.0 0.0 0.00 0.00 0.00 99 1018.0
20260906081103 18 356 0.0 1.6 0.00 0.00 0.00 99 1018.1
20260906080559 18 356 0.0 0.0 0.00 0.00 0.00 99 1018.0
20260906080055 18 356 1.6 1.6 0.00 0.00 0.00 99 1018.2
20260906075555 18 356 0.0 0.0 0.00 0.00 0.00 99 1018.0
20260906075050 18 356 0.0 1.6 0.00 0.00 0.00 99 1018.2
20260906074545 18 356 0.0 0.0 0.00 0.00 0.00 99 1018.1
20260906074043 18 356 0.0 0.0 0.00 0.00 0.00 99 1017.8
20260906073539 18 356 0.0 0.0 0.00 0.00 0.00 99 1017.9
20260906073035 18 356 0.0 1.6 0.00 0.00 0.00 99 1018.1
20260906072535 18 356 0.0 1.6 0.00 0.00 0.00 99 1018.2
20260906072031 18 356 0.0 0.0 0.00 0.00 0.00 99 1018.2
20260906071527 18 356 0.0 0.0 0.00 0.00 0.00 99 1018.4
20260906071022 18 356 0.0 0.0 0.00 0.00 0.00 99 1018.2
20260906070518 18 356 0.0 0.0 0.00 0.00 0.00 99 1018.3
20260906070014 18 356 0.0 0.0 0.00 0.00 0.00 99 1018.3
20260906065513 18 356 0.0 0.0 0.00 0.00 0.00 99 1018.4
20260906065009 18 356 0.0 1.6 0.00 0.00 0.00 99 1018.3
20260906064505 18 356 0.0 0.0 0.00 0.00 0.00 99 1018.3
20260906063959 18 356 0.0 0.0 0.00 0.00 0.00 99 1018.4
20260906063455 18 356 0.0 0.0 0.00 0.00 0.00 99 1018.3
20260906062955 18 356 0.0 0.0 0.00 0.00 0.00 99 1018.1
20260906062445 18 356 0.0 1.6 0.00 0.00 0.00 98 1018.4
20260906061940 18 356 0.0 0.0 0.00 0.00 0.00 98 1018.3
20260906061436 18 356 0.0 0.0 0.00 0.00 0.00 98 1018.3
20260906060935 18 356 0.0 0.0 0.00 0.00 0.00 98 1018.3
20260906060433 18 356 0.0 0.0 0.00 0.00 0.00 98 1018.3
20260906055929 18 356 0.0 0.0 0.00 0.00 0.00 98 1018.3
20260906055424 18 356 0.0 0.0 0.00 0.00 0.00 98 1018.2
20260906054920 18 356 0.0 0.0 0.00 0.00 0.00 98 1018.3
20260906054414 18 356 0.0 0.0 0.00 0.00 0.00 97 1018.4
20260906053910 18 356 0.0 0.0 0.00 0.00 0.00 97 1018.4
20260906053406 18 356 0.0 0.0 0.00 0.00 0.00 97 1018.5
20260906052902 18 356 0.0 0.0 0.00 0.00 0.00 97 1018.7
20260906052358 18 356 0.0 0.0 0.00 0.00 0.00 97 1018.6
20260906051855 18 356 0.0 0.0 0.00 0.00 0.00 97 1018.6
20260906051354 18 356 0.0 0.0 0.00 0.00 0.00 98 1018.4
20260906050850 18 356 0.0 0.0 0.00 0.00 0.00 98 1018.4
20260906050345 18 356 0.0 0.0 0.00 0.00 0.00 98 1018.5
20260906045844 18 356 0.0 0.0 0.00 0.00 0.00 97 1018.5
20260906045338 18 356 0.0 0.0 0.00 0.00 0.00 97 1018.4
20260906044835 18 356 0.0 0.0 0.00 0.00 0.00 97 1018.4
20260906044334 18 356 0.0 0.0 0.00 0.00 0.00 97 1018.5
20260906043830 18 356 0.0 0.0 0.00 0.00 0.00 97 1018.5
20260906043326 18 356 0.0 0.0 0.00 0.00 0.00 97 1018.2
20260906042827 18 356 0.0 1.6 0.00 0.00 0.00 97 1018.4
20260906042325 18 356 0.0 0.0 0.00 0.00 0.00 97 1018.2
20260906041821 19 356 1.6 1.6 0.00 0.00 0.00 97 1018.1
20260906041316 19 356 0.0 1.6 0.00 0.00 0.00 96 1018.5
20260906040811 19 356 0.0 1.6 0.00 0.00 0.00 96 1018.6
20260906040307 19 356 0.0 0.0 0.00 0.00 0.00 96 1018.3
20260906035802 19 356 0.0 0.0 0.00 0.00 0.00 96 1018.2
20260906035257 19 356 0.0 0.0 0.00 0.00 0.00 96 1018.3
20260906034758 19 356 0.0 0.0 0.00 0.00 0.00 95 1018.5
20260906034258 19 356 0.0 0.0 0.00 0.00 0.00 95 1018.4
20260906033754 19 356 0.0 0.0 0.00 0.00 0.00 95 1018.4
20260906033253 19 356 0.0 0.0 0.00 0.00 0.00 95 1018.4
20260906032750 20 356 0.0 0.0 0.00 0.00 0.00 95 1018.4
20260906032249 20 356 0.0 0.0 0.00 0.00 0.00 94 1018.4
20260906031745 20 356 0.0 0.0 0.00 0.00 0.00 94 1018.5
20260906031241 20 356 0.0 0.0 0.00 0.00 0.00 94 1018.6
20260906030740 20 356 0.0 0.0 0.00 0.00 0.00 94 1018.4
20260906030236 20 356 0.0 0.0 0.00 0.00 0.00 94 1018.7
20260906025735 20 356 0.0 0.0 0.00 0.00 0.00 94 1018.6
20260906025229 20 356 0.0 0.0 0.00 0.00 0.00 94 1018.3
20260906024728 20 356 0.0 0.0 0.00 0.00 0.00 94 1018.3
20260906024227 20 356 0.0 0.0 0.00 0.00 0.00 94 1018.4
20260906023724 19 356 0.0 1.6 0.00 0.00 0.00 94 1018.2
20260906023219 19 357 0.0 0.0 0.00 0.00 0.00 94 1018.0
20260906022714 19 357 0.0 0.0 0.00 0.00 0.00 94 1017.8
20260906022209 19 357 0.0 0.0 0.00 0.00 0.00 94 1017.5
20260906021706 19 357 0.0 0.0 0.00 0.00 0.00 93 1017.2
20260906021204 20 357 0.0 0.0 0.00 0.00 0.00 93 1017.0
20260906020659 20 357 0.0 0.0 0.00 0.00 0.00 91 1017.0
20260906020154 20 357 0.0 0.0 0.00 0.00 0.00 91 1016.8
20260906015654 20 357 0.0 1.6 0.00 0.00 0.00 90 1016.8
20260906015153 20 357 0.0 0.0 0.00 0.00 0.00 89 1016.7
20260906014652 20 357 0.0 0.0 0.00 0.00 0.00 90 1016.8
20260906014149 20 357 0.0 0.0 0.00 0.00 0.00 89 1016.0
20260906013644 20 357 0.0 0.0 0.00 0.00 0.00 89 1016.3
20260906013140 21 357 0.0 0.0 0.00 0.00 0.00 89 1016.2
20260906012640 21 357 0.0 0.0 0.00 0.00 0.00 88 1015.9
20260906012139 21 357 0.0 0.0 0.00 0.00 0.00 88 1015.9
20260906011636 21 357 0.0 0.0 0.00 0.00 0.00 88 1015.8
20260906011130 21 357 0.0 0.0 0.00 0.00 0.00 87 1015.7
20260906010626 21 357 0.0 0.0 0.00 0.00 0.00 87 1015.9
20260906010122 21 357 0.0 0.0 0.00 0.00 0.00 86 1015.9
20260906005621 21 357 0.0 0.0 0.00 0.00 0.00 86 1015.6
20260906005121 22 357 0.0 0.0 0.00 0.00 0.00 85 1015.9
20260906004620 22 357 0.0 0.0 0.00 0.00 0.00 85 1015.7
20260906004115 22 357 0.0 0.0 0.00 0.00 0.00 84 1015.7
20260906003610 22 357 0.0 0.0 0.00 0.00 0.00 84 1015.5
20260906003107 22 357 0.0 0.0 0.00 0.00 0.00 83 1015.7
20260906002607 23 357 1.6 1.6 0.00 0.00 0.00 82 1015.6
20260906002101 23 357 0.0 0.0 0.00 0.00 0.00 81 1015.6
20260906001557 23 357 0.0 0.0 0.00 0.00 0.00 80 1016.0
20260906001057 23 357 0.0 0.0 0.00 0.00 0.00 79 1016.0
20260906000553 23 357 0.0 0.0 0.00 0.00 0.00 79 1016.2
20260906000048 24 357 1.6 1.6 0.00 0.00 0.00 78 1016.2
20260905235547 24 357 0.0 0.0 0.00 0.00 0.00 78 1016.2
20260905235042 25 357 0.0 1.6 0.00 0.00 0.00 78 1016.2
20260905234537 25 357 0.0 0.0 0.00 0.00 0.00 76 1016.2
20260905234032 25 357 0.0 3.2 0.00 0.00 0.00 75 1016.2
20260905233527 25 25 0.0 1.6 0.00 0.00 0.00 75 1016.4
20260905233027 25 24 0.0 3.2 0.00 0.00 0.00 74 1016.2
20260905232522 25 352 0.0 1.6 0.00 0.00 0.00 74 1016.4
20260905232018 25 352 1.6 1.6 0.00 0.00 0.00 74 1016.3
20260905231513 25 333 0.0 0.0 0.00 0.00 0.00 74 1016.6
20260905231009 26 333 0.0 1.6 0.00 0.00 0.00 73 1016.5
20260905230508 26 110 1.6 1.6 0.00 0.00 0.00 72 1016.6
20260905230007 26 111 0.0 1.6 0.00 0.00 0.00 71 1016.5
20260905225502 26 110 0.0 3.2 0.00 0.00 0.00 71 1016.3
20260905224957 26 87 0.0 1.6 0.00 0.00 0.00 71 1016.4
20260905224452 26 85 0.0 1.6 0.00 0.00 0.00 72 1016.3
20260905223951 26 86 0.0 0.0 0.00 0.00 0.00 72 1016.4
20260905223449 26 73 0.0 1.6 0.00 0.00 0.00 70 1016.3
20260905222944 26 132 0.0 0.0 0.00 0.00 0.00 68 1016.2
20260905222444 27 132 1.6 1.6 0.00 0.00 0.00 68 1016.3
20260905221939 27 132 0.0 0.0 0.00 0.00 0.00 68 1016.3
20260905221436 27 53 1.6 1.6 0.00 0.00 0.00 67 1016.2
20260905220932 27 66 0.0 1.6 0.00 0.00 0.00 66 1016.3
20260905220427 27 209 1.6 1.6 0.00 0.00 0.00 65 1016.2
20260905215927 28 208 0.0 1.6 0.00 0.00 0.00 64 1016.2
20260905215422 28 209 0.0 1.6 0.00 0.00 0.00 62 1016.2
20260905214919 28 210 0.0 1.6 0.00 0.00 0.00 59 1016.4
20260905214414 29 210 1.6 3.2 0.00 0.00 0.00 58 1016.3
20260905213914 28 90 1.6 1.6 0.00 0.00 0.00 59 1016.5
20260905213410 28 91 0.0 1.6 0.00 0.00 0.00 61 1016.7
20260905212905 28 91 1.6 1.6 0.00 0.00 0.00 62 1016.7
20260905212400 28 22 1.6 1.6 0.00 0.00 0.00 61 1016.6
20260905211859 29 21 1.6 1.6 0.00 0.00 0.00 60 1016.8
20260905211355 30 30 0.0 3.2 0.00 0.00 0.00 58 1016.8
20260905210851 30 62 0.0 1.6 0.00 0.00 0.00 58 1016.8
20260905210351 29 322 0.0 0.0 0.00 0.00 0.00 59 1017.0
20260905205850 29 316 1.6 3.2 0.00 0.00 0.00 60 1017.0
20260905205345 29 327 0.0 1.6 0.00 0.00 0.00 60 1017.1
20260905204844 28 233 0.0 0.0 0.00 0.00 0.00 60 1016.9
20260905204341 28 78 1.6 3.2 0.00 0.00 0.00 60 1017.2
20260905203839 28 173 0.0 1.6 0.00 0.00 0.00 61 1017.1
20260905203335 28 280 0.0 1.6 0.00 0.00 0.00 61 1017.3
20260905202830 29 280 0.0 1.6 0.00 0.00 0.00 58 1017.2
20260905202325 28 254 1.6 1.6 0.00 0.00 0.00 60 1017.2
20260905201821 28 254 1.6 3.2 0.00 0.00 0.00 62 1017.3
20260905201317 28 270 0.0 1.6 0.00 0.00 0.00 65 1017.3
20260905200816 28 269 0.0 1.6 0.00 0.00 0.00 64 1017.4
20260905200312 27 270 0.0 1.6 0.00 0.00 0.00 65 1017.6
20260905195810 27 294 1.6 3.2 0.00 0.00 0.00 65 1017.5
20260905195307 28 280 1.6 1.6 0.00 0.00 0.00 63 1017.5
20260905194801 28 260 1.6 3.2 0.00 0.00 0.00 62 1017.4
20260905194301 27 100 1.6 1.6 0.00 0.00 0.00 64 1017.7
20260905193800 26 184 0.0 1.6 0.00 0.00 0.00 68 1017.5
20260905193255 26 180 0.0 1.6 0.00 0.00 0.00 68 1017.6
20260905192750 26 182 1.6 1.6 0.00 0.00 0.00 70 1017.5
20260905192247 26 237 1.6 3.2 0.00 0.00 0.00 70 1017.4
20260905191746 26 236 0.0 1.6 0.00 0.00 0.00 71 1017.5
20260905191244 26 286 0.0 0.0 0.00 0.00 0.00 71 1017.5
20260905190743 26 286 0.0 1.6 0.00 0.00 0.00 70 1017.5
20260905190242 25 259 1.6 1.6 0.00 0.00 0.00 72 1017.5
20260905185736 25 274 0.0 1.6 0.00 0.00 0.00 73 1017.3
20260905185231 25 245 1.6 1.6 0.00 0.00 0.00 73 1017.4
20260905184731 25 245 0.0 1.6 0.00 0.00 0.00 73 1017.4
20260905184230 25 216 0.0 1.6 0.00 0.00 0.00 74 1017.2
20260905183729 25 216 0.0 1.6 0.00 0.00 0.00 74 1017.3
20260905183225 25 216 1.6 1.6 0.00 0.00 0.00 76 1017.3
20260905182724 25 202 1.6 1.6 0.00 0.00 0.00 76 1017.5
20260905182224 24 202 0.0 1.6 0.00 0.00 0.00 76 1017.5
20260905181719 24 257 1.6 3.2 0.00 0.00 0.00 77 1017.4
20260905181218 24 177 1.6 1.6 0.00 0.00 0.00 77 1017.6
20260905180713 24 177 1.6 1.6 0.00 0.00 0.00 78 1017.7
20260905180209 24 263 0.0 1.6 0.00 0.00 0.00 78 1017.7
20260905175708 23 263 0.0 0.0 0.00 0.00 0.00 79 1017.8
20260905175203 23 290 1.6 1.6 0.00 0.00 0.00 80 1018.0
20260905174659 23 290 1.6 1.6 0.00 0.00 0.00 80 1018.1
20260905174154 23 257 0.0 1.6 0.00 0.00 0.00 80 1018.0
20260905173650 23 257 0.0 1.6 0.00 0.00 0.00 81 1018.1
20260905173145 23 257 0.0 0.0 0.00 0.00 0.00 83 1018.2
20260905172644 23 257 1.6 1.6 0.00 0.00 0.00 82 1018.2
20260905172139 23 256 1.6 1.6 0.00 0.00 0.00 83 1018.3
20260905171635 23 256 0.0 1.6 0.00 0.00 0.00 84 1018.4
20260905171131 22 256 0.0 1.6 0.00 0.00 0.00 84 1018.2
20260905170627 22 344 0.0 1.6 0.00 0.00 0.00 83 1018.2
20260905170123 22 345 0.0 0.0 0.00 0.00 0.00 84 1018.2
20260905165617 22 345 0.0 0.0 0.00 0.00 0.00 83 1018.1
20260905165113 22 344 0.0 0.0 0.00 0.00 0.00 84 1018.2
20260905164608 22 257 0.0 1.6 0.00 0.00 0.00 84 1018.0
20260905164107 22 258 0.0 1.6 0.00 0.00 0.00 84 1018.2
20260905163603 22 355 0.0 1.6 0.00 0.00 0.00 85 1018.4
20260905163059 22 355 0.0 0.0 0.00 0.00 0.00 86 1018.3
20260905162555 22 355 0.0 0.0 0.00 0.00 0.00 86 1018.1